STARLINK-4595 (53627 NORAD) Tracking and Keplerian Element Data

This shows tracking and keplerian element data for the satellite.

Feedback or suggestion? Click here.




ElementValue
Catalog53627
NameSTARLINK-4595
Epoch Orbit130
Epoch Day324.91667824
Epoch Year2022
RAAN242.2716
Inclination53.2166
Eccentricity0.0001632
Argument of Perigee58.3756
Mean Anonmoly141.2856
Mean Motion15.08843842
Decay Rate-0.00016646
L11 53627U 22104AR 22324.91667824 -.00016646 00000+0 -10301-2 0 9999
L22 53627 53.2166 242.2716 0001632 58.3756 141.2856 15.08843842 1302



Live tracking and technical data element details for STARLINK-4595 (NORAD 53627). STARLINK-4595 can be tracked NOW for your location showing map with azimuth and elevation plus other details from your city location.







IsCatalogInMostPopularTable: catalog: 53627, numindb: 4
Update: records affected: 1



GetName: 53627 STARLINK-4595

Hit Count: updated at: Tue, 29 Nov 2022 01:47:27 GMT